Погода в Швайнфурте

Германия     50°02′51″N   10°13′24″E
темп.,
°C
ветер,
м/с
пор.,
м/с
влажн.,
%
обл.,
%
осадки,
мм/ч
давл.,
гПа
погр.,
м
16 мая, вс
вс1623:00+7ююз31198100 0.7 1006349
02:00+8юз51194100 0.8 1006781
05:00+8юз4992100 0.0 1005595
08:00+9юз3893100 0.3 1006613
11:00+11юз689098 1.3 1006896
14:00+12зюз5878100 2.1 10051171
17:00+13юз367888 0.6 1003802
20:00+11юз3789100 2.8 1003189
17 мая, пн
пн1723:00+9юз4898100 4.5 1003344
02:00+9ю3109774 9.0 1004475
05:00+7юз4119798 0.1 1005471
08:00+8юз81396100 1.8 10061071
11:00+8зюз6129384 1.9 1008819
14:00+11зюз71183100 2.5 10091260
17:00+12зюз8128293 0.7 10091280
20:00+10юз7138760 1.0 1010963
18 мая, вт
вт1823:00+9юз6139465 0.1 1011628
02:00+9зюз51090100 0.1 1012754
05:00+8юз41093100 0.1 1012630
08:00+8юз51097100 2.1 1013746
11:00+9зюз4993100 0.4 1014788
14:00+10зюз699096 2.3 1014920
17:00+11зюз6108735 1.8 10141109
20:00+9зюз5109119 2.7 1015678
19 мая, ср
ср1923:00+6юз389713 0.0 1017242
02:00+5ююз379992 0.1 1018206
05:00+7юз3698100 0.2 1017300
08:00+8зюз369399 0.3 1018431
11:00+10з468790 0.6 1017754
14:00+13зсз567197 1.5 10161500
17:00+13з346798 0.8 10151240
20:00+10з239045 1.9 101684
20 мая, чт
чт2023:00+6зсз229465 0.3 101822
02:00+5зюз22948 0.3 101919
05:00+6з2394100 0.0 102085
08:00+7з279595 0.0 1022298
11:00+12зсз576546 0.1 10231480
14:00+12зсз676653 0.5 10231566
17:00+13сз686215 0.3 10231571
20:00+11зсз35745 0.6 1022130